sat.trackr.live / text

‹ back to catalog

STARLINK-34450

NORAD 64447 · 2025-130K

PAYLOAD ACTIVE UNKNOWN

§ Identity

Operator
Country
US
Launch date
2025-06-18
Launch site
AFETR
Launch vehicle
Mass (kg)
RCS (m²)

Purposes: comms

External: N2YO · Heavens-Above · Gunter

§ Orbital elements

Epoch: 2026-05-25T03:11:14.309664Z

Period
94.10 min
Inclination
53.1584°
Eccentricity
0.0001280
Mean motion
15.30206982 rev/d
Perigee alt
474.3 km
Apogee alt
476.1 km
Semi-major
6,853.3 km
B*
6.2664e-4
RAAN
93.6928°
Arg perigee
91.4810°
Mean anomaly
268.6338°
Rev number
5,240

§ Raw data

STARLINK-344501 64447U 25130K   26145.13280451  .00018250  00000+0  62664-3 0  99902 64447  53.1584  93.6928 0001280  91.4810 268.6338 15.30206982 52407

JSON: /api/v1/satellites/64447 · /tle

For live sub-satellite position, see the globe view (requires WebGL).

§ Visibility from observer

Set your observer location to see the next 7 days of passes ≥ 10°. The values pass through the URL so the page stays shareable.

No JS? Fill the form by hand. The geolocation button needs JavaScript.